Location: P�rn�nmaa
(61.1833°N, 23.0000°E)
Time: 18:26:15
(UTC+00:00)

Cosmos 2322 Rocket - Pass Details

Date: 08 December 2019
Orbit: 831 x 852 km, 71.0° (Epoch: 16 January)

Event Time Altitude Azimuth Distance (km) Brightness Sun altitude
Rises 14:41:22 0° 207° (SSW) 3,375 6.5 -8.8°
Reaches altitude 10° 14:43:48 10° 205° (SSW) 2,447 5.6 -9.1°
Maximum altitude 14:49:22 67° 124° (SE) 910 2.3 -9.6°
Enters shadow 14:54:40 12° 44° (NE) 2,351 3.9 -10.2°
